{"data":{"norad_id":64011,"intl_designator":"2025-101T","name":"STARLINK-34193","alt_names":[],"object_type":"PAYLOAD","status":"ACTIVE","operator":null,"country":"US","launch_date":"2025-05-14","launch_site_code":"AFETR","launch_vehicle":null,"mission":null,"orbit_class":"UNKNOWN","rcs_meters":null,"size_class":null,"mass_kg":null,"dimensions":null,"purposes":["comms"],"wikipedia_slug":null,"has_3d_model":false,"image_url":null,"decayed_at":null,"tle_current":{"epoch":"2026-05-24T17:49:35.831712Z","epoch_age_seconds":107839,"freshness":"FRESH","line1":"1 64011U 25101T   26144.74277583  .00014369  00000+0  53052-3 0  9991","line2":"2 64011  42.9982 288.7080 0001603 275.4978  84.5691 15.27589761 58684","mean_motion":15.27589761,"eccentricity":0.0001603,"inclination_deg":42.9982,"raan_deg":288.708,"arg_perigee_deg":275.4978,"mean_anomaly_deg":84.5691,"bstar":0.00053052,"rev_number":5868,"period_min":94.266146367552,"perigee_km":481.92002480381,"apogee_km":484.11971169577,"semimajor_km":6861.1568682498,"source":"CELESTRAK","updated_at":"2026-05-25T13:38:20.221325Z"}}}